Powrót do katalogu

HULIANWANG DIGUI-13

AktywnyŁącznośćLEO
NORAD 62973·PAYLOAD·🇨🇳 China

Wystrzelony Feb 11, 2025 z Wenchang Space Launch Site

Loading…

Następne Przeloty (najbliższe 24 godziny)

TLE

ŚwieżeSource: Space-Track

Epoka: Sep 14, 2026, 12:57 UTC

1 62973U 25030C   26257.54015817 -.00000093  00000-0  66418-4 0  9992
2 62973  50.0019 275.3470 0000363  19.4596 340.6290 13.29326617 77747

Śledź HULIANWANG DIGUI-13 w czasie rzeczywistym z AllMySat

Download on the App Store